Simultaneous Nadir Overpasses (SNOs) Predictions

Prediction of SNOs between GOES-15 and TERRA Satellite Orbit:

Table of predicted SNOs for the next 14.0 days since TLE Epoch: 9/27/2015
Index Date Time (GOES-15) GOES-15 Lat,Lon TERRA Lat,Lon Distance(km) Time Diff (sec)
1 09/28/2015 19:21:54 -0.33,-135.22 -0.90,-132.64 293.56 80
2 09/29/2015 07:43:17 0.34,-135.15 -0.23,-137.82 303.90 80
3 10/01/2015 07:28:22 0.34,-135.11 0.39,-134.85 29.90 80
4 10/03/2015 07:16:47 0.33,-135.07 1.02,-131.88 363.22 40
5 10/03/2015 19:37:22 -0.33,-135.12 0.05,-137.04 217.81 80
6 10/05/2015 19:27:46 -0.33,-135.07 -0.52,-134.05 115.14 80
7 10/06/2015 07:49:09 0.33,-135.00 -0.59,-139.24 481.97 80
8 10/07/2015 19:15:31 -0.32,-135.02 -1.17,-131.08 447.78 80
9 10/08/2015 07:36:54
